Voltar ao catálogo

BREEZE-M R/B

AtivoMEO
NORAD 32375·ROCKET BODY·🇷🇺 Russia

Lançado Dec 9, 2007 de Baikonur Cosmodrome

Loading…

Próximas Passagens (próximas 24 horas)

TLE

AtualizadoSource: Space-Track

Época: Sep 14, 2026, 12:17 UTC

1 32375U 07058C   26257.51221531 -.00000211  00000-0  00000-0 0  9997
2 32375  11.4236  24.6041 0251159 220.6341 335.9395  1.04430310 71402

Acompanhe BREEZE-M R/B em tempo real com AllMySat

Download on the App Store